Вернуться в каталог

STARLINK-37506

АктивенСвязьVLEO
NORAD 69261·PAYLOAD·🇺🇸 United States

Запущен May 29, 2026 с Cape Canaveral Space Force Station

Loading…

Ближайшие Пролёты (ближайшие 24 часа)

TLE

СвежийSource: CelesTrak SupGP

Эпоха: Sep 15, 2026, 03:58 UTC

1 69261C 26117Z   26258.16576389 -.00013653  00000+0 -40351-3 0  2582
2 69261  53.1572 178.8917 0001303  85.7032 327.5292 15.34387031    18

Отслеживайте STARLINK-37506 в реальном времени с AllMySat

Download on the App Store